Regional Weather Roundup
Issued by NWS Wakefield, VA

Home | Current Version | Previous Version | Text Only | Print | Product List | Glossary On
Versions: 1 2 3 4 5 6 7 8 9 10 11 12 13 14 15 16 17 18 19 20 21 22 23 24 25 26 27 28
000
ASUS41 KAKQ 091415
RWRAKQ

REGIONAL WEATHER ROUNDUP
NATIONAL WEATHER SERVICE WAKEFIELD VA
900 AM EST FRI DEC 09 2016

Note: "fair" indicates few or no clouds below 12,000 feet with no
significant weather and/or obstructions to visibility. * = Denotes
station may not report precipitation (e.g., rain,snow,etc.),
thunder or fog.

VAZ042-051-052>054-056-091500-
NORTHERN VIRGINIA

CITY           SKY/WX    TMP DP  RH WIND       PRES   REMARKS
WASH NATIONAL  SUNNY     33  15  47 W15G25    30.32R WCI  23
DULLES         SUNNY     31  14  49 NW20G36   30.30R WCI  19
FORT BELVOIR   SUNNY     33  13  45 W15       30.32R WCI  22
QUANTICO       SUNNY     33  14  45 NW3       30.36R
FREDERICKSBRG* SUNNY     33  16  50 W7        30.34R
STAFFORD*      SUNNY     31  13  48 W7        30.37S
WARRENTON      SUNNY     33   9  36 W6        30.32R
CULPEPER*      SUNNY     33  14  45 CALM      30.34R
MANASSAS*      SUNNY    N/A N/A N/A NW12G17   30.34R
LEESBURG*      SUNNY     32  21  64 NW16G28   30.31R WCI  21
WINCHESTER     MOSUNNY   28  14  54 NW17G24   30.30R WCI  16
FRONT ROYAL*   FAIR      30  14  51 W13       30.31R WCI  20
LURAY*         FAIR      30  18  59 W6        30.31R
$$

VAZ048-049-060>072-079>083-091500-
CENTRAL AND SOUTH CENTRAL VIRGINIA

CITY           SKY/WX    TMP DP  RH WIND       PRES   REMARKS
RICHMOND       SUNNY     32  14  47 NW15      30.35R WCI  22
CHESTERFIELD*  FAIR      34   5  29 NW10G16   30.37R
PETERSBURG*    SUNNY     32  12  43 NW7G18    30.37R
HANOVER        SUNNY     32  14  47 NW9G18    30.36R
TAPPAHANNOCK*  SUNNY     32   8  36 W13G20    30.33R WCI  23
QUINTON*       FAIR      32  17  55 W9        30.34R
CHARLOTTSVILLE SUNNY     31  11  43 SW3       30.33R
GORDONSVILLE*  FAIR      31  13  46 SW8       30.33S
ORANGE*          N/A     32  14  47 SW8       30.34R
LOUISA*        SUNNY     34  16  47 W7        30.32R
BUMPASS*       FAIR      31  13  48 CALM      30.34R
FARMVILLE*     SUNNY     32  16  52 N5        30.37R
CREWE*         FAIR      31  15  52 N5        30.36R
FORT PICKETT*  FAIR      32  10  39 NW9       30.36R
CHASE CITY*    FAIR      31  12  45 NW9       30.37R
CLARKSVILLE*   FAIR      32  18  55 NW7       30.37R
SOUTH HILL*    SUNNY     31  17  54 NW6       30.42R
LAWRENCEVILLE* FAIR      32  16  50 NW6       30.36R
EMPORIA*       SUNNY     32  18  55 NW7       30.38R
$$

VAZ088>098-091500-
SOUTHEAST VIRGINIA

CITY           SKY/WX    TMP DP  RH WIND       PRES   REMARKS
NORFOLK        SUNNY     36  16  44 NW13G23   30.33R
VIRGINIA BEACH MOSUNNY   36  21  54 N17       30.31R
NORFOLK NAVAL  MOSUNNY   36  18  48 NW16      30.35R
WEST POINT*    SUNNY     33  14  46 NW9G16    30.36R
SALUDA*        FAIR      32  17  54 NW9G20    30.32R
NEWPORT NEWS   SUNNY     34  16  47 NW13G22   30.34R WCI  25
LANGLEY AFB    SUNNY     34  17  50 NW10      30.32R
FORT EUSTIS    SUNNY     35  17  47 NW9       30.32R
WILLIAMSBURG*  MOSUNNY   34  19  55 NW7G16    30.34R
HR EXEC AP*    FAIR      34  19  55 NW6       30.33R
FRANKLIN*      SUNNY     32  19  58 NW5       30.36R
US460-WAKEFLD  MOSUNNY   32  17  54 VRB5      30.35R
$$

VAZ020-022-025-037-045-091500-
WEST CENTRAL AND SOUTHWEST VIRGINIA

CITY           SKY/WX    TMP DP  RH WIND       PRES   REMARKS
STAUNTON*      SUNNY     26  12  55 S5        30.33R
WAYNESBORO*    FAIR      26   9  48 W3        30.30S
HOT SPRINGS VA CLOUDY    18   9  68 W15G24    30.15R WCI   3
LYNCHBURG      SUNNY     29  10  45 N8        30.36R
DANVILLE       SUNNY     30  13  49 NW20      30.39R WCI  17
SOUTH BOSTON*  FAIR      31  11  43 NW13G20   30.39R WCI  22
MARTINSVILLE   SUNNY     29  13  49 N12       30.40R WCI  20
ROANOKE        PTSUNNY   26   9  48 NW12      30.40R WCI  16
BLACKSBURG     CLOUDY    23  11  58 W10       30.37R WCI  13
DUBLIN*        FLURRIES  24  13  63 NW12      30.36R WCI  13
MARION*        LGT SNOW  22  15  74 W7        30.35R
HILLSVILLE*    CLOUDY    21  13  72 NW21      30.27R WCI   6
RICHLANDS*     LGT SNOW  18  13  80 W8        30.35R
WISE*          LGT SNOW  19  12  73 NW5       30.39R
ABINGDON*      FLURRIES  24  14  67 N9        30.40R
$$

MDZ021>025-VAZ099-100-091500-
SOUTHERN MARYLAND AND THE DELMARVA PENINSULA

CITY           SKY/WX    TMP DP  RH WIND       PRES   REMARKS
PATUXENT RIVER MOSUNNY   32  15  49 W14       30.30R WCI  22
BAY BRIDGE APT SUNNY     32  18  55 MISG      30.29R
LEONARDTOWN    SUNNY     32  16  51 W6        30.31R
DOVER          SUNNY     32  19  58 W13       30.24R WCI  22
GEORGETOWN     SUNNY     32  18  56 VRB7      30.27R
EASTON         SUNNY     34  18  51 NW12G21   30.32R
CAMBRIDGE      SUNNY     32  18  55 W15G21    30.28R WCI  22
SALISBURY      SUNNY     32  17  54 NW13      30.28R WCI  22
OCEAN CITY     SUNNY     32  17  54 NW12G20   30.27R WCI  23
WALLOPS ISLAND SUNNY     33  18  53 NW15G23   30.29R WCI  23
ACCOMACK*      MOSUNNY   35  22  58 NW17      30.30R WCI  25
$$

NCZ012>017-030>032-091500-
NORTH CENTRAL AND EASTERN NORTH CAROLINA

CITY           SKY/WX    TMP DP  RH WIND       PRES   REMARKS
ROANOKE RAPIDS FAIR      34  19  55 N10       30.37R
RALEIGH        NOT AVBL
ELIZABETH CITY SUNNY     35  23  61 NW10      30.34R
AHOSKIE*       SUNNY     32  18  56 NW7       30.37R
EDENTON*       SUNNY     36  23  59 N3        30.35R
CURRITUCK*     SUNNY     35  21  58 W6        30.33R
KILL DEVIL HLS SUNNY     37  26  64 NW10G20   30.30R
MANTEO         SUNNY     37  22  52 N14       30.32R
CAPE HATTERAS  SUNNY     41  24  51 VRB5      30.31R
TARBORO*       NOT AVBL
GOLDSBORO      SUNNY     36  16  45 NW7       30.36R
WASHINGTON     MOSUNNY   34  20  57 NW7       30.36R
GREENVILLE     SUNNY     34  21  60 N7        30.37R
NEW BERN       SUNNY     37  20  50 N10       30.37R
WILMINGTON     SUNNY     38  19  46 N13G20    30.38R
$$

VAZ048-091500-
ELSEWHERE

CITY           SKY/WX    TMP DP  RH WIND       PRES   REMARKS
HARRISBURG PA  PTSUNNY   33  20  58 W17       30.23S WCI  22
BALTIMORE      MOSUNNY   31  16  54 NW14G24   30.27R WCI  21
ANNAPOLIS      SUNNY     33  17  51 W14       30.29R WCI  23
ANDREWS AFB    SUNNY     31  14  49 NW16      30.28R WCI  20
PHILADELPHIA   SUNNY     33  17  51 W15G22    30.22R WCI  23
HENDERSON NC   MOSUNNY   29  12  50 NW9       30.37R
GREENSBORO     SUNNY     32  15  49 NW8       30.35R
ROCKY MOUNT    SUNNY     34  19  54 NW12      30.38R
$$

VAZ100-091500-
MARINE

STATION/POSITION TIME  TEMP    WIND        PRES    WAVE   SWELL
                       AIR SEA DIR/SP/G            HT/PER HT/PER
                 (UTC) (F)     (DEG/KT/KT) (MB)    (FT/S) (FT/S)
BRANDYWINE LGT   1348   32     310/ 20/ 27   N/A
CAPE MAY NJ      1348   34 42  310/ 22/ 28 1023.2R
LEWES DE         1348   32 45  290/ 17/ 21 1024.3R
OCEAN-CITY-INLET 1348   33 47  320/ 11/ 18 1025.0R
WACHAPREAGUE VA  1348   35 42  310/  7/ 17 1025.8R
THOMAS POINT MD  1400   32 47  300/ 25/ 28   N/A
GOOSES REEF MD   1400   34 49  300/ 17/ 21 1026.6    2/ 3
COVE POINT MD    1348   31     330/ 12/ 17 1026.4R
SOLOMONS ISLAND  1348   33 49  310/  9/ 16   N/A
BISHOPS HEAD MD  1348   33 38  300/ 19/ 22 1026.3R
PINEY POINT MD   1348          340/ 21/ 23   N/A
POTOMAC MD       1400   35 49  320/ 21/ 25 1025.9    3/ 3
CAMBRIDGE MD     1348   33 45  300/ 16/ 20 1025.1R
LEWISETTA VA     1348   33 45  300/ 10/ 14 1026.3R
RAPPAHANNOCK LGT 1348          310/ 21/ 25 1026.5R
STINGRAY PT      1400   34     330/ 16/ 19 1027.1    2/ 2
YORK RVR RNG VA  1348   34     330/ 19/ 24 1026.6R
YORKTOWN VA      1348   34 49  330/ 15/ 19 1026.7R
JAMESTOWN VA     1400   33 50  310/ 14/ 17   N/A     1/ 2
DOMINION TERM VA 1348   36      30/  4/ 12 1027.0R
KIPTOPEKE VA     1348      49  350/ 19/ 23   N/A
CHES BAY BRIDGE  1348   35 51  340/ 20/ 25 1026.5R
CAPE HENRY VA    1348   35     320/ 19/ 23   N/A
WILLOUBY STN VA  1348   34     330/ 12/ 15 1027.7R
S CRANEY ISL VA  1348   35     340/ 11/ 17 1026.6R
CAPE HENRY BUOY  1342      53                N/A     5/ 6
CAPE CHARLES BUO 1356      53                N/A     4/ 4
OFFSHORE WE BUOY 1351      55                N/A     6/ 7
64NM E OF VA BCH 1350   40 58  350/ 17/ 25 1024.4R   8/ 6   2/15
DUCK PIER NC     1348   36 53  320/ 22/ 24 1025.6R
44100 DUCK FRF   1305      56                N/A     6/ 7   2/13
OREGON INLET NC  1336   38 52  320/ 14/ 19 1025.9R
HATTERAS NC      1348   40 55  330/ 16/ 19 1026.1R
DIAMOND SHLS NC  1350   44 75  350/ 17/ 23 1025.7R   5/ 7   2/ 9
CAPE LOOKOUT NC  1300   38     340/ 17/ 20 1026.5R
$$




USA.gov is the U.S. government's official web portal to all federal, state and local government web resources and services.